Regional Weather Roundup
Issued by NWS

Home | Current Version | Previous Version | Text Only | Print | Product List | Glossary Off
Versions: 1 2 3 4 5 6 7 8 9 10 11 12 13 14 15 16 17 18 19 20 21 22 23 24 25 26 27 28 29 30 31 32 33 34 35 36 37 38 39 40 41 42 43 44 45 46 47 48 49 50

000
ASUS43 KTOP 240408
RWRKS

WEATHER ROUNDUP FOR KANSAS
NATIONAL WEATHER SERVICE GOODLAND KS
1100 PM CDT SUN APR 23 2017

NOTE:  "FAIR" INDICATES FEW OR NO CLOUDS BELOW 12,000 FEET WITH NO
SIGNIFICANT WEATHER AND/OR OBSTRUCTIONS TO VISIBILITY.

KSZ001>006-013>018-027>032-041>047-240500-
NORTHWEST KANSAS

CITY           SKY/WX    TMP DP  RH WIND       PRES   REMARKS
GOODLAND       CLOUDY    56  38  50 S24G32    29.71F
HILL CITY      CLOUDY    56  39  53 S15G25    29.80F
RUSSELL        CLOUDY    55  38  52 S18G28    29.85F
$$

KSZ061>065-074>080-084>089-240500-
SOUTHWEST KANSAS

CITY           SKY/WX    TMP DP  RH WIND       PRES   REMARKS
DODGE CITY     CLEAR     54  35  48 S17G28    29.86F
ELKHART          N/A     56  36  47 S20         N/A
GARDEN CITY    CLEAR     55  34  45 S18G26    29.82F
GREAT BEND     CLOUDY    54  37  52 S18       29.88
PRATT          CLEAR     51  35  53 S16       29.92F
$$

KSZ066>073-081>083-090>101-240500-
SOUTHEAST KANSAS

CITY           SKY/WX    TMP DP  RH WIND       PRES   REMARKS
CHANUTE        CLEAR     49  43  80 S3        30.00S
COFFEYVILLE    PTCLDY    51  44  77 CALM      30.01S
HUTCHINSON     CLOUDY    53  39  59 S10       29.94F
MEDICINE LODGE   N/A     54  37  52 S12       29.93F
NEWTON         CLOUDY    53  39  59 S10       29.96
PARSONS        CLOUDY    47  45  93 CALM      30.01S
WICHITA INTL   CLOUDY    52  40  63 VRB7      29.95F
WICHITA JABRA  CLOUDY    51  39  63 S7        29.96F
WICHITA MCCONL CLOUDY    53  38  56 S8        29.96F
WINFIELD       CLOUDY    50  39  66 SE5       29.98F
$$

KSZ007>012-019>026-033>040-048>060-102>105-240500-
NORTHEAST KANSAS

CITY           SKY/WX    TMP DP  RH WIND       PRES   REMARKS
CONCORDIA      CLOUDY    54  36  50 S14       29.90F
EMPORIA        CLOUDY    50  42  74 S7        29.97F
LAWRENCE       CLOUDY    48  42  80 E3        29.99F
MANHATTAN      CLOUDY    54  41  61 S8        29.94F
MARYSVILLE     CLOUDY    54  36  50 S7        29.93F
OLATHE IND     MOCLDY    53  37  54 SE5       30.00F
OLATHE EXE     CLOUDY    53  39  59 SE3       30.00S
SALINA         PTCLDY    52  41  66 S10       29.92F
TOPEKA BILLARD CLOUDY    54  40  59 S7        29.97F
TOPEKA FORBES  CLOUDY    54  39  57 S7        29.97F
$$




USA.gov is the U.S. government's official web portal to all federal, state and local government web resources and services.